Time,TemperatureF,DewpointF,PressureIn,WindDirection,WindDirectionDegrees,WindSpeedMPH,WindSpeedGustMPH,Humidity,HourlyPrecipIn,Conditions,Clouds,dailyrainin,SoftwareType,DateUTC
2013-02-21 00:03:00,61.0,-99.9,30.08,East,88,6.0,8.0,-999,-99.99,,,-99.99,,2013-02-21 05:03:00,
2013-02-21 00:12:00,61.0,-99.9,30.08,East,88,6.0,8.0,-999,-99.99,,,-99.99,,2013-02-21 05:12:00,
2013-02-21 00:22:00,61.0,-99.9,30.08,East,88,6.0,8.0,-999,-99.99,,,-99.99,,2013-02-21 05:22:00,
2013-02-21 00:42:00,61.0,-99.9,30.06,ENE,77,7.0,9.0,-999,-99.99,,,-99.99,,2013-02-21 05:42:00,
2013-02-21 01:52:00,60.0,-99.9,30.06,ESE,105,6.0,7.0,-999,-99.99,,,-99.99,,2013-02-21 06:52:00,
2013-02-21 02:01:00,60.0,-99.9,30.05,ESE,102,8.0,10.0,-999,-99.99,,,-99.99,,2013-02-21 07:01:00,
2013-02-21 02:11:00,60.0,-99.9,30.05,ESE,104,8.0,11.0,-999,-99.99,,,-99.99,,2013-02-21 07:11:00,
2013-02-21 02:22:00,60.0,-99.9,30.04,ESE,110,7.0,11.0,-999,-99.99,,,-99.99,,2013-02-21 07:22:00,
2013-02-21 02:32:00,60.0,-99.9,30.04,ESE,123,8.0,10.0,-999,-99.99,,,-99.99,,2013-02-21 07:32:00,
2013-02-21 02:42:00,60.0,-99.9,30.04,ESE,118,6.0,9.0,-999,-99.99,,,-99.99,,2013-02-21 07:42:00,
2013-02-21 02:52:00,60.0,-99.9,30.04,ESE,119,7.0,10.0,-999,-99.99,,,-99.99,,2013-02-21 07:52:00,
2013-02-21 03:02:00,60.0,-99.9,30.04,ESE,118,6.0,10.0,-999,-99.99,,,-99.99,,2013-02-21 08:02:00,
2013-02-21 03:11:00,60.0,-99.9,30.04,SE,127,6.0,10.0,-999,-99.99,,,-99.99,,2013-02-21 08:11:00,
2013-02-21 03:21:00,60.0,-99.9,30.04,SE,124,6.0,9.0,-999,-99.99,,,-99.99,,2013-02-21 08:21:00,
2013-02-21 03:32:00,60.0,-99.9,30.03,ESE,122,7.0,9.0,-999,-99.99,,,-99.99,,2013-02-21 08:32:00,
2013-02-21 03:42:00,60.0,-99.9,30.03,SE,127,7.0,10.0,-999,-99.99,,,-99.99,,2013-02-21 08:42:00,
2013-02-21 03:52:00,60.0,-99.9,30.03,SE,125,6.0,10.0,-999,-99.99,,,-99.99,,2013-02-21 08:52:00,
2013-02-21 04:02:00,60.0,-99.9,30.02,ESE,119,6.0,10.0,-999,-99.99,,,-99.99,,2013-02-21 09:02:00,
2013-02-21 04:11:00,60.0,-99.9,30.03,ESE,119,6.0,10.0,-999,-99.99,,,-99.99,,2013-02-21 09:11:00,
2013-02-21 04:22:00,60.0,-99.9,30.02,ESE,122,6.0,9.0,-999,-99.99,,,-99.99,,2013-02-21 09:22:00,
2013-02-21 04:32:00,60.0,-99.9,30.02,SE,132,7.0,11.0,-999,-99.99,,,-99.99,,2013-02-21 09:32:00,
2013-02-21 04:42:00,61.0,-99.9,30.02,SE,131,6.0,9.0,-999,-99.99,,,-99.99,,2013-02-21 09:42:00,
2013-02-21 04:52:00,61.0,-99.9,30.02,ESE,123,7.0,12.0,-999,-99.99,,,-99.99,,2013-02-21 09:52:00,
2013-02-21 05:01:00,61.0,-99.9,30.02,ESE,123,7.0,12.0,-999,-99.99,,,-99.99,,2013-02-21 10:01:00,
2013-02-21 05:11:00,61.0,-99.9,30.02,ESE,123,7.0,12.0,-999,-99.99,,,-99.99,,2013-02-21 10:11:00,
2013-02-21 05:21:00,61.0,-99.9,30.02,ESE,123,7.0,12.0,-999,-99.99,,,-99.99,,2013-02-21 10:21:00,
2013-02-21 06:21:00,61.0,-99.9,30.04,SE,124,7.0,9.0,-999,-99.99,,,-99.99,,2013-02-21 11:21:00,
2013-02-21 06:31:00,60.0,-99.9,30.04,ENE,64,8.0,11.0,-999,-99.99,,,-99.99,,2013-02-21 11:31:00,
2013-02-21 06:42:00,60.0,-99.9,30.04,ESE,112,8.0,10.0,-999,-99.99,,,-99.99,,2013-02-21 11:42:00,
2013-02-21 06:52:00,60.0,-99.9,30.05,ESE,104,7.0,9.0,-999,-99.99,,,-99.99,,2013-02-21 11:52:00,
2013-02-21 07:01:00,60.0,-99.9,30.05,ESE,122,7.0,10.0,-999,-99.99,,,-99.99,,2013-02-21 12:01:00,
2013-02-21 07:11:00,60.0,-99.9,30.05,ESE,119,9.0,11.0,-999,-99.99,,,-99.99,,2013-02-21 12:11:00,
2013-02-21 07:22:00,60.0,-99.9,30.05,SE,126,8.0,11.0,-999,-99.99,,,-99.99,,2013-02-21 12:22:00,
2013-02-21 07:32:00,60.0,-99.9,30.05,SE,139,9.0,12.0,-999,-99.99,,,-99.99,,2013-02-21 12:32:00,
2013-02-21 07:43:00,60.0,-99.9,30.04,SE,140,8.0,10.0,-999,-99.99,,,-99.99,,2013-02-21 12:43:00,
2013-02-21 07:53:00,61.0,-99.9,30.05,ESE,118,6.0,9.0,-999,-99.99,,,-99.99,,2013-02-21 12:53:00,
2013-02-21 08:02:00,61.0,-99.9,30.06,ESE,110,7.0,10.0,-999,-99.99,,,-99.99,,2013-02-21 13:02:00,
2013-02-21 08:12:00,61.0,-99.9,30.06,ESE,115,7.0,10.0,-999,-99.99,,,-99.99,,2013-02-21 13:12:00,
2013-02-21 08:22:00,61.0,-99.9,30.08,ESE,115,5.0,11.0,-999,-99.99,,,-99.99,,2013-02-21 13:22:00,
2013-02-21 08:32:00,61.0,-99.9,30.08,ESE,112,7.0,12.0,-999,-99.99,,,-99.99,,2013-02-21 13:32:00,
2013-02-21 08:42:00,62.0,-99.9,30.08,ESE,119,7.0,9.0,-999,-99.99,,,-99.99,,2013-02-21 13:42:00,
2013-02-21 08:52:00,62.0,-99.9,30.09,ESE,122,7.0,9.0,-999,-99.99,,,-99.99,,2013-02-21 13:52:00,
2013-02-21 09:02:00,63.0,-99.9,30.09,ESE,117,8.0,10.0,-999,-99.99,,,-99.99,,2013-02-21 14:02:00,
2013-02-21 09:11:00,63.0,-99.9,30.09,SE,133,7.0,11.0,-999,-99.99,,,-99.99,,2013-02-21 14:11:00,
2013-02-21 09:22:00,64.0,-99.9,30.09,ESE,118,9.0,14.0,-999,-99.99,,,-99.99,,2013-02-21 14:22:00,
2013-02-21 09:32:00,64.0,-99.9,30.09,SE,124,9.0,13.0,-999,-99.99,,,-99.99,,2013-02-21 14:32:00,
2013-02-21 09:42:00,65.0,-99.9,30.10,SE,124,8.0,13.0,-999,-99.99,,,-99.99,,2013-02-21 14:42:00,
2013-02-21 09:52:00,65.0,-99.9,30.10,SE,132,8.0,11.0,-999,-99.99,,,-99.99,,2013-02-21 14:52:00,
2013-02-21 10:02:00,66.0,-99.9,30.10,SE,144,9.0,12.0,-999,-99.99,,,-99.99,,2013-02-21 15:02:00,
2013-02-21 10:12:00,67.0,-99.9,30.10,SE,134,8.0,11.0,-999,-99.99,,,-99.99,,2013-02-21 15:12:00,
2013-02-21 10:22:00,67.0,-99.9,30.10,SSE,148,8.0,12.0,-999,-99.99,,,-99.99,,2013-02-21 15:22:00,
2013-02-21 10:32:00,67.0,-99.9,30.10,SE,137,11.0,13.0,-999,-99.99,,,-99.99,,2013-02-21 15:32:00,
2013-02-21 10:42:00,68.0,-99.9,30.10,SE,143,9.0,12.0,-999,-99.99,,,-99.99,,2013-02-21 15:42:00,
2013-02-21 10:52:00,68.0,-99.9,30.10,SE,140,9.0,12.0,-999,-99.99,,,-99.99,,2013-02-21 15:52:00,
2013-02-21 11:02:00,69.0,-99.9,30.10,SE,142,10.0,12.0,-999,-99.99,,,-99.99,,2013-02-21 16:02:00,
2013-02-21 11:12:00,69.0,-99.9,30.10,SE,138,8.0,10.0,-999,-99.99,,,-99.99,,2013-02-21 16:12:00,
2013-02-21 11:22:00,70.0,-99.9,30.10,SE,137,7.0,9.0,-999,-99.99,,,-99.99,,2013-02-21 16:22:00,
2013-02-21 11:32:00,71.0,-99.9,30.10,SE,141,6.0,8.0,-999,-99.99,,,-99.99,,2013-02-21 16:32:00,
2013-02-21 11:42:00,71.0,-99.9,30.10,SE,141,5.0,8.0,-999,-99.99,,,-99.99,,2013-02-21 16:42:00,
2013-02-21 11:52:00,72.0,-99.9,30.10,SE,137,7.0,9.0,-999,-99.99,,,-99.99,,2013-02-21 16:52:00,
2013-02-21 12:02:00,72.0,-99.9,30.10,SSE,160,6.0,10.0,-999,-99.99,,,-99.99,,2013-02-21 17:02:00,
2013-02-21 12:12:00,73.0,-99.9,30.09,SE,144,7.0,9.0,-999,-99.99,,,-99.99,,2013-02-21 17:12:00,
2013-02-21 12:22:00,73.0,-99.9,30.09,South,181,7.0,11.0,-999,-99.99,,,-99.99,,2013-02-21 17:22:00,
2013-02-21 12:32:00,74.0,-99.9,30.08,SSE,161,6.0,9.0,-999,-99.99,,,-99.99,,2013-02-21 17:32:00,
2013-02-21 12:42:00,73.0,-99.9,30.08,South,181,9.0,12.0,-999,-99.99,,,-99.99,,2013-02-21 17:42:00,
2013-02-21 12:52:00,74.0,-99.9,30.07,South,189,6.0,10.0,-999,-99.99,,,-99.99,,2013-02-21 17:52:00,
2013-02-21 13:02:00,74.0,-99.9,30.07,South,189,7.0,10.0,-999,-99.99,,,-99.99,,2013-02-21 18:02:00,
2013-02-21 13:12:00,74.0,-99.9,30.07,SSW,194,7.0,10.0,-999,-99.99,,,-99.99,,2013-02-21 18:12:00,
2013-02-21 13:22:00,71.0,-99.9,30.06,WSW,249,7.0,10.0,-999,-99.99,,,-99.99,,2013-02-21 18:22:00,
2013-02-21 13:32:00,70.0,-99.9,30.06,WSW,248,8.0,9.0,-999,-99.99,,,-99.99,,2013-02-21 18:32:00,
2013-02-21 13:42:00,71.0,-99.9,30.06,WSW,244,7.0,9.0,-999,-99.99,,,-99.99,,2013-02-21 18:42:00,
2013-02-21 13:52:00,70.0,-99.9,30.06,WSW,242,7.0,9.0,-999,-99.99,,,-99.99,,2013-02-21 18:52:00,
2013-02-21 14:02:00,70.0,-99.9,30.05,WSW,246,10.0,10.0,-999,-99.99,,,-99.99,,2013-02-21 19:02:00,
2013-02-21 14:22:00,70.0,-99.9,30.04,WSW,240,10.0,12.0,-999,-99.99,,,-99.99,,2013-02-21 19:22:00,
2013-02-21 14:32:00,69.0,-99.9,30.04,WSW,242,9.0,12.0,-999,-99.99,,,-99.99,,2013-02-21 19:32:00,
2013-02-21 14:42:00,70.0,-99.9,30.03,WSW,242,13.0,15.0,-999,-99.99,,,-99.99,,2013-02-21 19:42:00,
2013-02-21 14:52:00,70.0,-99.9,30.03,WSW,242,13.0,15.0,-999,-99.99,,,-99.99,,2013-02-21 19:52:00,
2013-02-21 15:01:00,70.0,-99.9,30.03,WSW,242,13.0,13.0,-999,-99.99,,,-99.99,,2013-02-21 20:01:00,
2013-02-21 15:11:00,70.0,-99.9,30.02,WSW,239,14.0,16.0,-999,-99.99,,,-99.99,,2013-02-21 20:11:00,
2013-02-21 15:22:00,71.0,-99.9,30.01,WSW,242,14.0,15.0,-999,-99.99,,,-99.99,,2013-02-21 20:22:00,
2013-02-21 15:32:00,71.0,-99.9,30.01,WSW,240,13.0,15.0,-999,-99.99,,,-99.99,,2013-02-21 20:32:00,
2013-02-21 15:42:00,70.0,-99.9,30.01,WSW,241,13.0,14.0,-999,-99.99,,,-99.99,,2013-02-21 20:42:00,
2013-02-21 15:53:00,71.0,-99.9,30.01,WSW,242,13.0,14.0,-999,-99.99,,,-99.99,,2013-02-21 20:53:00,
2013-02-21 16:02:00,71.0,-99.9,30.01,WSW,242,14.0,15.0,-999,-99.99,,,-99.99,,2013-02-21 21:02:00,
2013-02-21 16:22:00,70.0,-99.9,30.01,WSW,242,14.0,15.0,-999,-99.99,,,-99.99,,2013-02-21 21:22:00,
2013-02-21 16:32:00,70.0,-99.9,30.01,WSW,244,13.0,14.0,-999,-99.99,,,-99.99,,2013-02-21 21:32:00,
2013-02-21 16:42:00,70.0,-99.9,30.01,WSW,241,13.0,14.0,-999,-99.99,,,-99.99,,2013-02-21 21:42:00,
2013-02-21 16:52:00,71.0,-99.9,30.01,WSW,240,12.0,15.0,-999,-99.99,,,-99.99,,2013-02-21 21:52:00,
2013-02-21 17:02:00,70.0,-99.9,30.00,SW,235,12.0,13.0,-999,-99.99,,,-99.99,,2013-02-21 22:02:00,
2013-02-21 17:11:00,70.0,-99.9,29.99,WSW,237,13.0,13.0,-999,-99.99,,,-99.99,,2013-02-21 22:11:00,
2013-02-21 17:22:00,70.0,-99.9,29.99,SW,234,12.0,13.0,-999,-99.99,,,-99.99,,2013-02-21 22:22:00,
2013-02-21 17:32:00,71.0,-99.9,29.99,SW,231,12.0,13.0,-999,-99.99,,,-99.99,,2013-02-21 22:32:00,
2013-02-21 17:42:00,70.0,-99.9,29.99,SW,234,11.0,12.0,-999,-99.99,,,-99.99,,2013-02-21 22:42:00,
2013-02-21 17:52:00,70.0,-99.9,29.99,SW,232,13.0,15.0,-999,-99.99,,,-99.99,,2013-02-21 22:52:00,
2013-02-21 18:01:00,70.0,-99.9,29.99,SW,230,12.0,13.0,-999,-99.99,,,-99.99,,2013-02-21 23:01:00,
2013-02-21 18:11:00,70.0,-99.9,30.00,SW,227,12.0,13.0,-999,-99.99,,,-99.99,,2013-02-21 23:11:00,
2013-02-21 18:22:00,71.0,-99.9,30.00,SW,222,10.0,12.0,-999,-99.99,,,-99.99,,2013-02-21 23:22:00,
2013-02-21 18:32:00,72.0,-99.9,30.00,SW,219,9.0,11.0,-999,-99.99,,,-99.99,,2013-02-21 23:32:00,
2013-02-21 18:42:00,72.0,-99.9,30.00,SSW,210,10.0,11.0,-999,-99.99,,,-99.99,,2013-02-21 23:42:00,
2013-02-21 18:53:00,72.0,-99.9,30.00,SSW,202,8.0,9.0,-999,-99.99,,,-99.99,,2013-02-21 23:53:00,
2013-02-21 19:02:00,72.0,-99.9,30.01,SSW,201,6.0,9.0,-999,-99.99,,,-99.99,,2013-02-22 00:02:00,
2013-02-21 19:11:00,73.0,-99.9,30.01,SSW,192,7.0,9.0,-999,-99.99,,,-99.99,,2013-02-22 00:11:00,
2013-02-21 19:22:00,72.0,-99.9,30.01,South,191,6.0,8.0,-999,-99.99,,,-99.99,,2013-02-22 00:22:00,
2013-02-21 19:32:00,72.0,-99.9,30.01,SSW,198,7.0,8.0,-999,-99.99,,,-99.99,,2013-02-22 00:32:00,
2013-02-21 19:42:00,72.0,-99.9,30.01,South,191,5.0,9.0,-999,-99.99,,,-99.99,,2013-02-22 00:42:00,
2013-02-21 19:52:00,71.0,-99.9,30.01,SSW,199,7.0,9.0,-999,-99.99,,,-99.99,,2013-02-22 00:52:00,
2013-02-21 20:01:00,71.0,-99.9,30.01,South,188,7.0,9.0,-999,-99.99,,,-99.99,,2013-02-22 01:01:00,
2013-02-21 20:11:00,71.0,-99.9,30.01,South,186,6.0,9.0,-999,-99.99,,,-99.99,,2013-02-22 01:11:00,
2013-02-21 20:22:00,71.0,-99.9,30.01,South,178,4.0,6.0,-999,-99.99,,,-99.99,,2013-02-22 01:22:00,
2013-02-21 20:32:00,71.0,-99.9,30.01,South,189,4.0,6.0,-999,-99.99,,,-99.99,,2013-02-22 01:32:00,
2013-02-21 20:42:00,71.0,-99.9,30.01,SSW,196,6.0,7.0,-999,-99.99,,,-99.99,,2013-02-22 01:42:00,
2013-02-21 20:52:00,71.0,-99.9,30.01,SSW,193,4.0,6.0,-999,-99.99,,,-99.99,,2013-02-22 01:52:00,
2013-02-21 21:02:00,71.0,-99.9,30.02,SSW,199,6.0,7.0,-999,-99.99,,,-99.99,,2013-02-22 02:02:00,
2013-02-21 21:11:00,71.0,-99.9,30.02,SSW,199,6.0,7.0,-999,-99.99,,,-99.99,,2013-02-22 02:11:00,
2013-02-21 21:22:00,71.0,-99.9,30.01,SSW,201,6.0,8.0,-999,-99.99,,,-99.99,,2013-02-22 02:22:00,
2013-02-21 21:32:00,71.0,-99.9,30.02,SSW,200,6.0,8.0,-999,-99.99,,,-99.99,,2013-02-22 02:32:00,
2013-02-21 21:42:00,71.0,-99.9,30.02,South,191,6.0,8.0,-999,-99.99,,,-99.99,,2013-02-22 02:42:00,
2013-02-21 21:52:00,70.0,-99.9,30.02,South,175,4.0,8.0,-999,-99.99,,,-99.99,,2013-02-22 02:52:00,
2013-02-21 22:02:00,70.0,-99.9,30.03,South,170,3.0,6.0,-999,-99.99,,,-99.99,,2013-02-22 03:02:00,
2013-02-21 22:11:00,70.0,-99.9,30.03,South,173,4.0,6.0,-999,-99.99,,,-99.99,,2013-02-22 03:11:00,
2013-02-21 22:22:00,70.0,-99.9,30.03,South,186,6.0,8.0,-999,-99.99,,,-99.99,,2013-02-22 03:22:00,
2013-02-21 22:32:00,70.0,-99.9,30.03,South,187,5.0,7.0,-999,-99.99,,,-99.99,,2013-02-22 03:32:00,
2013-02-21 22:42:00,70.0,-99.9,30.03,SSW,193,7.0,8.0,-999,-99.99,,,-99.99,,2013-02-22 03:42:00,
2013-02-21 22:52:00,70.0,-99.9,30.03,South,186,7.0,10.0,-999,-99.99,,,-99.99,,2013-02-22 03:52:00,
2013-02-21 23:02:00,70.0,-99.9,30.03,South,185,5.0,9.0,-999,-99.99,,,-99.99,,2013-02-22 04:02:00,
2013-02-21 23:11:00,70.0,-99.9,30.03,South,183,6.0,9.0,-999,-99.99,,,-99.99,,2013-02-22 04:11:00,
2013-02-21 23:22:00,69.0,-99.9,30.03,SSE,163,5.0,7.0,-999,-99.99,,,-99.99,,2013-02-22 04:22:00,
2013-02-21 23:32:00,69.0,-99.9,30.03,South,178,4.0,8.0,-999,-99.99,,,-99.99,,2013-02-22 04:32:00,
2013-02-21 23:42:00,69.0,-99.9,30.03,South,180,4.0,9.0,-999,-99.99,,,-99.99,,2013-02-22 04:42:00,
2013-02-21 23:52:00,69.0,-99.9,30.03,SSE,156,5.0,8.0,-999,-99.99,,,-99.99,,2013-02-22 04:52:00,